{"data":{"norad_id":66921,"intl_designator":"2025-285G","name":"HULIANWANG DIGUI-111","alt_names":[],"object_type":"PAYLOAD","status":"ACTIVE","operator":null,"country":"PRC","launch_date":"2025-12-06","launch_site_code":"WSC","launch_vehicle":null,"mission":null,"orbit_class":"UNKNOWN","rcs_meters":null,"size_class":null,"mass_kg":null,"dimensions":null,"purposes":[],"wikipedia_slug":null,"has_3d_model":false,"image_url":null,"decayed_at":null,"tle_current":{"epoch":"2026-05-25T04:42:25.200000Z","epoch_age_seconds":58435,"freshness":"FRESH","line1":"1 66921U 25285G   26145.19612500 -.00000095  00000+0  61542-4 0  9994","line2":"2 66921  50.0117 228.3371 0001002 213.1584 146.9225 13.29325423 23001","mean_motion":13.29325423,"eccentricity":0.0001002,"inclination_deg":50.0117,"raan_deg":228.3371,"arg_perigee_deg":213.1584,"mean_anomaly_deg":146.9225,"bstar":6.1542e-5,"rev_number":2300,"period_min":108.3256195274,"perigee_km":1148.5545000045,"apogee_km":1150.0630001328,"semimajor_km":7527.4457500687,"source":"CELESTRAK","updated_at":"2026-05-25T13:38:06.594927Z"}}}